This demonstration page uses our WeatherBlox Daily Observations layout. Learn more.

Left ArrowRight Arrow

Hourly Observations for June 14, 2017

Temp ( °F °C ) Dew Point ( °F °C ) Humidity (%) Winds ( mph kmh ) Pressure ( in mb ) Visibility ( mi km ) Precip ( " mm )
12:06 am 00:06 Mostly Cloudy 70 21 66 19 88 88 SSE 6 9 29.97 1015 10 16 N/A
12:27 am 00:27 Partly Cloudy 70 21 64 18 83 83 SSE 8 13 29.97 1015 10 16 N/A
12:46 am 00:46 Mostly Cloudy 70 21 66 19 88 88 WSW 6 9 30.00 1016 10 16 N/A
1:07 am 01:07 Cloudy 72 22 64 18 78 78 N N/A 30.00 1016 10 16 N/A
1:26 am 01:26 Cloudy 70 21 64 18 83 83 S 3 6 30.00 1016 10 16 N/A
1:46 am 01:46 Cloudy 70 21 66 19 88 88 SSE 3 6 30.00 1016 10 16 N/A
2:07 am 02:07 Mostly Cloudy 68 20 66 19 94 94 ESE 7 11 30.03 1017 10 16 N/A
2:26 am 02:26 Mostly Cloudy 68 20 66 19 94 94 ESE 9 15 30.00 1016 10 16 N/A
2:47 am 02:47 Cloudy 68 20 66 19 94 94 SE 9 15 29.97 1015 7 11 N/A
3:06 am 03:06 Mostly Cloudy 68 20 66 19 94 94 SE 7 11 29.97 1015 10 16 N/A
3:26 am 03:26 Partly Cloudy 68 20 66 19 94 94 S 5 7 30.00 1016 10 16 N/A
3:47 am 03:47 Partly Cloudy 68 20 66 19 94 94 S 7 11 29.97 1015 10 16 N/A
4:06 am 04:06 Clear 68 20 66 19 94 94 S 7 11 29.97 1015 10 16 N/A
4:27 am 04:27 Clear 68 20 66 19 94 94 S 8 13 29.97 1015 10 16 N/A
4:47 am 04:47 Clear 68 20 66 19 94 94 S 6 9 29.97 1015 10 16 N/A
5:06 am 05:06 Clear 68 20 66 19 94 94 S 5 7 29.97 1015 10 16 N/A
5:27 am 05:27 Clear 68 20 66 19 94 94 N N/A 30.00 1016 10 16 N/A
5:46 am 05:46 Clear 68 20 66 19 94 94 N N/A 30.00 1016 10 16 N/A
6:06 am 06:06 Clear 68 20 66 19 94 94 N N/A 30.00 1016 10 16 N/A
6:27 am 06:27 Sunny 68 20 66 19 94 94 N N/A 30.00 1016 10 16 N/A
6:46 am 06:46 Sunny 68 20 66 19 94 94 N N/A 30.00 1016 10 16 N/A
7:07 am 07:07 Sunny 68 20 66 19 94 94 N N/A 30.00 1016 10 16 N/A
7:26 am 07:26 Sunny 68 20 66 19 94 94 SSE 3 6 30.00 1016 10 16 N/A
7:47 am 07:47 Sunny 70 21 66 19 88 88 N N/A 29.97 1015 10 16 N/A
8:07 am 08:07 Sunny 70 21 66 19 88 88 N N/A 30.00 1016 10 16 N/A
8:26 am 08:26 Sunny 72 22 66 19 83 83 N N/A 30.00 1016 10 16 N/A
8:47 am 08:47 Sunny 73 23 66 19 78 78 N N/A 30.00 1016 10 16 N/A
9:06 am 09:06 Partly Cloudy 73 23 66 19 78 78 N N/A 30.00 1016 10 16 N/A
9:26 am 09:26 Partly Cloudy 73 23 68 20 83 83 N N/A 30.00 1016 10 16 N/A
9:47 am 09:47 Mostly Cloudy 75 24 70 21 83 83 S 5 7 30.00 1016 10 16 N/A
10:06 am 10:06 Mostly Cloudy 75 24 70 21 83 83 S 5 7 30.00 1016 10 16 N/A
10:27 am 10:27 Mostly Cloudy 77 25 70 21 79 79 S 3 6 30.00 1016 10 16 N/A
10:46 am 10:46 Mostly Cloudy 79 26 72 22 79 79 S 5 7 30.00 1016 10 16 N/A
11:07 am 11:07 Partly Cloudy 79 26 72 22 79 79 S 6 9 30.00 1016 10 16 N/A
11:27 am 11:27 Partly Cloudy 79 26 72 22 79 79 SSW 6 9 30.00 1016 10 16 N/A
11:46 am 11:46 Partly Cloudy 82 28 73 23 74 74 SW 7 11 29.97 1015 10 16 N/A
12:07 pm 12:07 Sunny 82 28 72 22 70 70 WSW 7 11 29.97 1015 10 16 N/A
12:26 pm 12:26 Sunny 84 29 72 22 66 66 SSW 6 9 29.97 1015 10 16 N/A
12:34 pm 12:34 Partly Cloudy 84 29 72 22 66 66 WSW 3 6 29.97 1015 10 16 N/A
2:33 pm 14:33 undefined N/A N/A N/A WSW 9 15 N/A N/A N/A
2:46 pm 14:46 Sunny 86 30 70 21 59 59 WSW 8 13 29.94 1014 10 16 N/A
3:06 pm 15:06 Cloudy 82 28 72 22 70 70 NE 5 7 29.94 1014 1 2 N/A
3:27 pm 15:27 Mostly Cloudy 86 30 73 23 66 66 E 9 15 29.94 1014 10 16 N/A
3:46 pm 15:46 Mostly Cloudy 79 26 70 21 74 74 ESE 21 33 29.94 1014 10 16 N/A
4:06 pm 16:06 Mostly Cloudy 77 25 70 21 79 79 E 17 28 29.94 1014 10 16 N/A
4:27 pm 16:27 Mostly Cloudy 77 25 70 21 79 79 ESE 15 24 29.94 1014 10 16 N/A
4:46 pm 16:46 Partly Cloudy 79 26 72 22 79 79 ESE 14 22 29.94 1014 10 16 N/A
5:07 pm 17:07 Partly Cloudy 73 23 70 21 89 89 ESE 15 24 29.94 1014 7 11 N/A
5:26 pm 17:26 Mostly Cloudy 73 23 70 21 89 89 ESE 14 22 29.94 1014 3 5 N/A
5:46 pm 17:46 Cloudy 73 23 72 22 94 94 SE 12 19 29.91 1013 10 16 N/A
6:07 pm 18:07 Partly Cloudy 75 24 72 22 89 89 SSE 10 17 29.91 1013 10 16 N/A
6:26 pm 18:26 Partly Cloudy 77 25 73 23 89 89 SE 10 17 29.91 1013 10 16 N/A
6:46 pm 18:46 Sunny 79 26 70 21 74 74 SSE 14 22 29.88 1012 10 16 N/A
7:06 pm 19:06 Sunny 79 26 70 21 74 74 S 14 22 29.88 1012 10 16 N/A
7:26 pm 19:26 Sunny 77 25 70 21 79 79 SSE 10 17 29.85 1011 10 16 N/A
7:47 pm 19:47 Sunny 77 25 70 21 79 79 SSW 7 11 29.91 1013 10 16 N/A
8:06 pm 20:06 Mostly Cloudy 72 22 68 20 88 88 WNW 26 43 29.97 1015 5 8 N/A
8:26 pm 20:26 Cloudy 68 20 66 19 94 94 NNE 8 13 30.00 1016 7 11 N/A
8:46 pm 20:46 Cloudy 68 20 66 19 94 94 NNE 5 7 30.00 1016 10 16 N/A
9:07 pm 21:07 Cloudy 68 20 66 19 94 94 NNE 7 11 30.00 1016 7 11 N/A
9:26 pm 21:26 Cloudy 66 19 66 19 100 100 NE 10 17 29.97 1015 5 8 N/A
9:46 pm 21:46 Partly Cloudy 66 19 66 19 100 100 NE 7 11 29.97 1015 10 16 N/A
10:07 pm 22:07 Mostly Cloudy 68 20 66 19 94 94 SW 9 15 30.03 1017 10 16 N/A
10:26 pm 22:26 Cloudy 68 20 66 19 94 94 NNE 3 6 29.97 1015 5 8 N/A
10:46 pm 22:46 Cloudy 66 19 66 19 100 100 N N/A 29.97 1015 7 11 N/A
11:07 pm 23:07 Cloudy 66 19 66 19 100 100 N N/A 29.97 1015 10 16 N/A
11:26 pm 23:26 Mostly Cloudy 66 19 66 19 100 100 ESE 7 11 29.94 1014 10 16 N/A
11:47 pm 23:47 Partly Cloudy 66 19 66 19 100 100 SSE 9 15 29.97 1015 10 16 N/A

Powered by AerisWeather